Simultaneous Nadir Overpasses (SNOs) Predictions

Prediction of SNOs between GOES-17 and AQUA Satellite Orbit:

Table of predicted SNOs for the next 14.0 days since TLE Epoch: 8/29/2020
Index Date Time (GOES-17) GOES-17 Lat,Lon AQUA Lat,Lon Distance(km) Time Diff (sec)
1 08/29/2020 22:36:36 -0.05,-137.19 0.44,-134.95 254.81 80
2 08/30/2020 10:57:51 0.05,-137.20 0.66,-140.11 330.76 80
3 09/01/2020 10:45:40 0.04,-137.19 0.01,-137.16 4.83 80
4 09/03/2020 10:33:28 0.04,-137.17 -0.58,-134.19 338.68 80
5 09/03/2020 22:52:13 -0.04,-137.16 -0.50,-139.39 253.29 80
6 09/05/2020 22:42:41 -0.03,-137.14 0.10,-136.43 80.98 80
7 09/07/2020 22:30:30 -0.03,-137.12 0.76,-133.48 414.55 80
8 09/08/2020 10:49:05 0.03,-137.12 0.34,-138.63 171.52 80
9 09/10/2020 10:39:33 0.03,-137.09 -0.26,-135.67 160.92 80
10 09/10/2020 22:58:18 -0.02,-137.07 -0.81,-140.87 431.74 80
